Weather observations for the past three days for
Baltimore, Baltimore-Washington International Airport
Metric (Imperial)
Date Time (edt) Wind (kph) Vis. (km) Weather Sky Cond. Temperature (ºC) Relative Humidity Wind Chill (°C) Heat Index (°C) Pressure Precipitation (cm)
Air Dwpt 6 hour altimeter (cm) sea level (mb) 1 hr 3 hr 6 hr
Max. Min.
21 13:54 Vrbl 7 16.09 A Few Clouds FEW060 FEW200 34.4 17.8 34.4 24.4 37% 35 76.58 1020.9
21 12:54 SE 11 16.09 A Few Clouds FEW060 FEW150 FEW250 33.3 18.3 41% 34 76.66 1021.8
21 11:54 S 11 16.09 A Few Clouds FEW055 FEW150 FEW250 32.8 18.3 42% 34 76.71 1022.6
21 10:54 Vrbl 7 16.09 A Few Clouds FEW150 FEW250 31.1 19.4 50% 33 76.73 1022.8
21 09:54 W 11 16.09 A Few Clouds FEW150 FEW250 28.9 19.4 57% 30 76.73 1023.0
21 08:54 Vrbl 6 16.09 A Few Clouds FEW150 FEW250 27.2 19.4 62% 29 76.76 1023.1
21 07:54 W 7 16.09 A Few Clouds FEW150 FEW250 24.4 19.4 25 19.4 74% 25 76.78 1023.5
21 06:54 SW 6 16.09 A Few Clouds FEW250 21.7 18.9 84% 76.78 1023.4
21 05:54 Calm 16.09 A Few Clouds FEW250 20 17.8 87% 76.78 1023.5
21 04:54 Calm 16.09 A Few Clouds FEW250 21.1 18.3 84% 76.76 1023.3
21 03:54 Calm 16.09 A Few Clouds FEW250 21.7 18.3 81% 76.78 1023.5
21 02:54 Calm 16.09 A Few Clouds FEW250 22.2 18.3 79% 76.81 1023.8
21 01:54 S 6 16.09 A Few Clouds FEW250 22.8 18.3 28.3 22.8 76% 76.84 1024.1
21 00:54 SW 6 16.09 A Few Clouds FEW250 23.3 18.3 74% 76.84 1024.3
20 23:54 Calm 16.09 Partly Cloudy FEW200 SCT250 23.9 18.3 71% 25 76.86 1024.5
20 22:54 S 6 16.09 A Few Clouds FEW200 FEW250 24.4 17.8 67% 25 76.86 1024.6
20 21:54 SE 6 16.09 A Few Clouds FEW250 25.6 17.2 60% 27 76.84 1024.3
20 20:54 S 6 16.09 Partly Cloudy FEW180 SCT250 26.7 17.2 56% 27 76.81 1023.8
20 19:54 SE 11 16.09 A Few Clouds FEW250 28.3 17.2 32.8 28.3 51% 29 76.81 1023.9
20 18:54 SE 13 16.09 Partly Cloudy FEW050 SCT250 30 17.8 48% 31 76.81 1023.9
20 17:54 SE 13 16.09 Partly Cloudy FEW042 FEW050 SCT250 30.6 18.3 48% 32 76.81 1023.9
20 16:54 S 13 16.09 Mostly Cloudy FEW042 FEW050 BKN250 31.7 18.3 45% 33 76.84 1024.4
20 15:54 SE 17 16.09 Mostly Cloudy FEW042 FEW050 BKN250 31.1 18.9 48% 32 76.91 1025.1
20 14:54 Vrbl 9 16.09 Mostly Cloudy FEW042 FEW050 BKN250 32.2 18.9 45% 34 76.94 1025.6
20 13:54 Calm 16.09 Mostly Cloudy SCT042 SCT050 BKN250 31.1 17.8 31.7 23.3 45% 32 76.96 1026.0
20 12:54 S 11 16.09 Mostly Cloudy SCT042 SCT050 BKN250 31.1 17.8 45% 32 77.01 1026.6
20 11:54 Vrbl 6 16.09 Mostly Cloudy SCT038 SCT045 BKN250 30 18.3 49% 31 77.06 1027.2
20 10:54 S 7 16.09 Mostly Cloudy FEW034 BKN250 29.4 19.4 55% 31 77.06 1027.1
20 09:54 S 11 16.09 Mostly Cloudy FEW032 BKN250 27.2 19.4 62% 29 77.09 1027.6
20 08:54 S 9 16.09 Mostly Cloudy BKN250 25 18.9 69% 26 77.09 1027.7
20 07:54 SW 9 16.09 Mostly Cloudy BKN250 23.9 19.4 23.9 19.4 76% 24 77.09 1027.5
20 06:54 Calm 16.09 Mostly Cloudy BKN250 21.1 18.9 87% 77.06 1027.1
20 05:54 Calm 16.09 Mostly Cloudy FEW190 BKN250 20.6 18.3 87% 77.04 1026.8
20 04:54 Calm 16.09 Mostly Cloudy BKN250 20.6 18.3 87% 77.04 1026.8
20 03:54 Calm 16.09 Mostly Cloudy FEW180 BKN250 20.6 18.3 87% 77.01 1026.6
20 02:54 Calm 16.09 Partly Cloudy FEW180 SCT250 21.7 18.3 81% 77.01 1026.4
20 01:54 SW 6 16.09 Mostly Cloudy BKN250 22.2 18.9 27.8 21.7 82% 76.99 1026.4
20 00:54 Calm 16.09 Mostly Cloudy BKN250 21.7 17.8 79% 77.01 1026.6
19 23:54 S 6 16.09 Mostly Cloudy BKN250 23.9 18.9 74% 25 77.06 1027.1
19 22:54 Calm 16.09 Mostly Cloudy BKN250 23.9 18.3 71% 25 77.04 1027.0
19 21:54 S 9 16.09 Mostly Cloudy BKN250 24.4 16.1 60% 26 77.01 1026.6
19 20:54 SE 11 16.09 Mostly Cloudy FEW200 BKN250 26.1 13.9 47% 27 76.96 1026.0
19 19:54 SE 9 16.09 Mostly Cloudy FEW036 SCT200 BKN250 27.8 11.1 32.2 27.8 35% 27 76.96 1025.8
19 18:54 S 11 16.09 Mostly Cloudy FEW036 BKN200 BKN250 29.4 12.8 36% 29 76.96 1025.9
19 17:54 SE 15 16.09 Mostly Cloudy FEW036 BKN200 BKN250 30.6 15 39% 30 76.96 1025.9
19 16:54 SE 15 16.09 Partly Cloudy FEW036 FEW200 SCT250 31.1 13.9 35% 30 76.99 1026.3
19 15:54 Vrbl 9 16.09 Partly Cloudy FEW036 SCT200 SCT250 31.7 16.1 39% 32 76.99 1026.3
19 14:54 SE 17 16.09 Mostly Cloudy FEW036 SCT200 BKN250 31.7 16.7 41% 32 77.01 1026.5
19 13:54 Vrbl 11 16.09 Mostly Cloudy FEW035 SCT200 BKN250 30.6 16.7 32.2 23.9 43% 31 77.01 1026.6
19 12:54 S 9 16.09 Mostly Cloudy FEW033 SCT200 BKN250 31.7 16.7 41% 32 77.06 1027.3
19 11:54 Vrbl 11 16.09 Mostly Cloudy FEW033 BKN250 30 17.8 48% 31 77.11 1027.8
19 10:54 N 6 16.09 Mostly Cloudy FEW032 BKN250 28.9 18.9 55% 30 77.11 1027.9
19 09:54 S 6 16.09 Mostly Cloudy FEW030 BKN250 26.7 19.4 64% 28 77.11 1027.8
19 08:54 Vrbl 9 16.09 Mostly Cloudy FEW030 BKN250 25.6 18.9 67% 27 77.11 1027.8
19 07:54 Vrbl 7 16.09 Mostly Cloudy BKN250 23.9 20 23.9 20.6 79% 24 77.09 1027.5
19 06:54 Calm 16.09 Mostly Cloudy BKN250 21.7 19.4 87% 77.04 1027.0
19 05:54 Calm 16.09 Partly Cloudy SCT250 21.1 18.9 87% 77.01 1026.4
19 04:54 Calm 16.09 Partly Cloudy SCT250 21.1 18.9 87% 76.99 1026.3
19 03:54 Calm 16.09 Mostly Cloudy BKN250 21.7 18.9 84% 76.96 1025.9
19 02:54 SE 7 16.09 Partly Cloudy SCT250 22.2 18.9 82% 76.94 1025.5
19 01:54 Calm 16.09 Mostly Cloudy BKN250 22.8 18.3 28.9 22.8 76% 76.94 1025.5
19 00:54 SE 9 16.09 Mostly Cloudy BKN250 23.3 18.3 74% 76.91 1025.1
18 23:54 S 6 16.09 Mostly Cloudy BKN250 23.9 17.8 69% 25 76.89 1025.0
18 22:54 S 7 16.09 Mostly Cloudy BKN250 24.4 17.2 64% 25 76.86 1024.7
18 21:54 S 9 16.09 Partly Cloudy SCT250 25.6 17.2 60% 27 76.86 1024.4
18 20:54 S 15 16.09 Partly Cloudy SCT250 26.7 18.9 62% 28 76.78 1023.7
18 19:54 Vrbl 11 16.09 A Few Clouds FEW250 28.9 18.9 33.3 28.9 55% 30 76.76 1023.1
18 18:54 S 11 16.09 A Few Clouds FEW250 30 18.9 51% 31 76.73 1022.8
18 17:54 S 20 G 31 16.09 A Few Clouds FEW050 FEW250 30.6 18.9 50% 32 76.71 1022.5
18 16:54 SE 15 G 30 16.09 A Few Clouds FEW050 FEW250 32.2 19.4 47% 34 76.73 1022.8
18 15:54 SE 19 16.09 A Few Clouds FEW050 FEW250 32.2 19.4 47% 34 76.76 1023.2
18 14:54 SE 19 G 31 16.09 Partly Cloudy FEW042 SCT250 32.2 20 48% 34 76.78 1023.4
Date Time (edt) Wind (kph) Vis. (km) Weather Sky Cond. Air Dwpt Max. Min. Relative Humidity Wind Chill (°C) Heat Index (°C) altimeter (cm) sea level (mb) 1 hr 3 hr 6 hr
6 hour
Temperature (ºC) Pressure Precipitation (cm)